Time,TemperatureF,DewpointF,PressureIn,WindDirection,WindDirectionDegrees,WindSpeedMPH,WindSpeedGustMPH,Humidity,HourlyPrecipIn,Conditions,Clouds,dailyrainin,SolarRadiationWatts/m^2,SoftwareType,DateUTC
2013-11-11 00:03:00,37.0,33.0,-100.00,West,276,4.0,12.0,86,0.00,,,0.11,0.000000,,2013-11-11 05:03:00,
2013-11-11 00:10:00,36.0,32.0,-100.00,SW,223,2.0,12.0,84,0.00,,,0.11,0.000000,,2013-11-11 05:10:00,
2013-11-11 00:44:00,36.0,32.0,-100.00,SW,223,2.0,12.0,84,0.00,,,0.11,0.000000,,2013-11-11 05:44:00,
2013-11-11 00:54:00,36.0,32.0,-100.00,SW,223,2.0,12.0,84,0.00,,,0.11,0.000000,,2013-11-11 05:54:00,
2013-11-11 01:03:00,36.0,32.0,-100.00,SW,223,2.0,12.0,84,0.00,,,0.11,0.000000,,2013-11-11 06:03:00,
2013-11-11 01:10:00,36.0,30.0,-100.00,West,270,6.0,17.0,78,0.00,,,0.11,0.000000,,2013-11-11 06:10:00,
2013-11-11 01:42:00,36.0,30.0,-100.00,West,270,6.0,17.0,78,0.00,,,0.11,0.000000,,2013-11-11 06:42:00,
2013-11-11 01:52:00,36.0,30.0,-100.00,West,270,6.0,17.0,78,0.00,,,0.11,0.000000,,2013-11-11 06:52:00,
2013-11-11 02:02:00,36.0,30.0,-100.00,West,270,6.0,17.0,78,0.00,,,0.11,0.000000,,2013-11-11 07:02:00,
2013-11-11 02:10:00,35.0,30.0,-100.00,WNW,296,3.0,11.0,82,0.01,,,0.12,0.000000,,2013-11-11 07:10:00,
2013-11-11 02:43:00,35.0,30.0,-100.00,WNW,296,3.0,11.0,82,0.01,,,0.12,0.000000,,2013-11-11 07:43:00,
2013-11-11 02:52:00,35.0,30.0,-100.00,WNW,296,3.0,11.0,82,0.01,,,0.12,0.000000,,2013-11-11 07:52:00,
2013-11-11 03:02:00,35.0,30.0,-100.00,WNW,296,3.0,11.0,82,0.01,,,0.12,0.000000,,2013-11-11 08:02:00,
2013-11-11 03:10:00,35.0,29.0,-100.00,West,260,5.0,11.0,77,0.00,,,0.12,0.000000,,2013-11-11 08:10:00,
2013-11-11 03:42:00,35.0,29.0,-100.00,West,260,5.0,11.0,77,0.00,,,0.12,0.000000,,2013-11-11 08:42:00,
2013-11-11 03:52:00,35.0,29.0,-100.00,West,260,5.0,11.0,77,0.00,,,0.12,0.000000,,2013-11-11 08:52:00,
2013-11-11 04:02:00,35.0,29.0,-100.00,West,260,5.0,11.0,77,0.00,,,0.12,0.000000,,2013-11-11 09:02:00,
2013-11-11 04:10:00,35.0,29.0,-100.00,NW,305,4.0,16.0,78,0.00,,,0.12,0.000000,,2013-11-11 09:10:00,
2013-11-11 04:43:00,35.0,29.0,-100.00,NW,305,4.0,16.0,78,0.00,,,0.12,0.000000,,2013-11-11 09:43:00,
2013-11-11 04:54:00,35.0,29.0,-100.00,NW,305,4.0,16.0,78,0.00,,,0.12,0.000000,,2013-11-11 09:54:00,
2013-11-11 05:03:00,35.0,29.0,-100.00,NW,305,4.0,16.0,78,0.00,,,0.12,0.000000,,2013-11-11 10:03:00,
2013-11-11 05:10:00,33.0,27.0,-100.00,WNW,288,5.0,16.0,77,0.00,,,0.12,0.000000,,2013-11-11 10:10:00,
2013-11-11 05:42:00,33.0,27.0,-100.00,WNW,288,5.0,16.0,77,0.00,,,0.12,0.000000,,2013-11-11 10:42:00,
2013-11-11 05:52:00,33.0,27.0,-100.00,WNW,288,5.0,16.0,77,0.00,,,0.12,0.000000,,2013-11-11 10:52:00,
2013-11-11 06:03:00,33.0,27.0,-100.00,WNW,288,5.0,16.0,77,0.00,,,0.12,0.000000,,2013-11-11 11:03:00,
2013-11-11 06:10:00,33.0,27.0,-100.00,West,269,6.0,18.0,78,0.00,,,0.12,0.000000,,2013-11-11 11:10:00,
2013-11-11 06:42:00,33.0,27.0,-100.00,West,269,6.0,18.0,78,0.00,,,0.12,0.000000,,2013-11-11 11:42:00,
2013-11-11 06:52:00,33.0,27.0,-100.00,West,269,6.0,18.0,78,0.00,,,0.12,0.000000,,2013-11-11 11:52:00,
2013-11-11 07:02:00,33.0,27.0,-100.00,West,269,6.0,18.0,78,0.00,,,0.12,0.000000,,2013-11-11 12:02:00,
2013-11-11 07:10:00,33.0,26.0,-100.00,West,278,5.0,15.0,76,0.00,,,-99.99,1.000000,,2013-11-11 12:10:00,
2013-11-11 07:42:00,33.0,26.0,-100.00,West,278,5.0,15.0,76,0.00,,,-99.99,1.000000,,2013-11-11 12:42:00,
2013-11-11 07:52:00,33.0,26.0,-100.00,West,278,5.0,15.0,76,0.00,,,-99.99,1.000000,,2013-11-11 12:52:00,
2013-11-11 08:01:00,33.0,26.0,-100.00,West,278,5.0,15.0,76,0.00,,,-99.99,1.000000,,2013-11-11 13:01:00,
2013-11-11 08:10:00,33.0,25.0,-100.00,West,265,4.0,11.0,73,0.00,,,-99.99,9.000000,,2013-11-11 13:10:00,
2013-11-11 08:42:00,33.0,25.0,-100.00,West,265,4.0,11.0,73,0.00,,,-99.99,9.000000,,2013-11-11 13:42:00,
2013-11-11 08:52:00,33.0,25.0,-100.00,West,265,4.0,11.0,73,0.00,,,-99.99,9.000000,,2013-11-11 13:52:00,
2013-11-11 09:02:00,33.0,25.0,-100.00,West,265,4.0,11.0,73,0.00,,,-99.99,9.000000,,2013-11-11 14:02:00,
2013-11-11 09:10:00,33.0,24.0,-100.00,West,270,4.0,10.0,70,0.00,,,-99.99,27.000000,,2013-11-11 14:10:00,
2013-11-11 09:42:00,33.0,24.0,-100.00,West,270,4.0,10.0,70,0.00,,,-99.99,27.000000,,2013-11-11 14:42:00,
2013-11-11 09:52:00,33.0,24.0,-100.00,West,270,4.0,10.0,70,0.00,,,-99.99,27.000000,,2013-11-11 14:52:00,
2013-11-11 10:02:00,33.0,24.0,-100.00,West,270,4.0,10.0,70,0.00,,,-99.99,27.000000,,2013-11-11 15:02:00,
2013-11-11 10:10:00,33.0,24.0,-100.00,West,267,5.0,11.0,70,0.00,,,0.12,44.000000,,2013-11-11 15:10:00,
2013-11-11 10:44:00,33.0,24.0,-100.00,West,267,5.0,11.0,70,0.00,,,0.12,44.000000,,2013-11-11 15:44:00,
2013-11-11 10:53:00,33.0,24.0,-100.00,West,267,5.0,11.0,70,0.00,,,0.12,44.000000,,2013-11-11 15:53:00,
2013-11-11 11:03:00,33.0,24.0,-100.00,West,267,5.0,11.0,70,0.00,,,0.12,44.000000,,2013-11-11 16:03:00,
2013-11-11 11:10:00,35.0,27.0,-100.00,West,264,6.0,12.0,73,0.00,,,0.04,94.000000,,2013-11-11 16:10:00,
2013-11-11 11:42:00,35.0,27.0,-100.00,West,264,6.0,12.0,73,0.00,,,0.04,94.000000,,2013-11-11 16:42:00,
2013-11-11 11:53:00,35.0,27.0,-100.00,West,264,6.0,12.0,73,0.00,,,0.04,94.000000,,2013-11-11 16:53:00,
2013-11-11 12:03:00,35.0,27.0,-100.00,West,264,6.0,12.0,73,0.00,,,0.04,94.000000,,2013-11-11 17:03:00,
2013-11-11 12:10:00,35.0,24.0,-100.00,West,259,5.0,12.0,63,0.00,,,0.04,130.000000,,2013-11-11 17:10:00,
2013-11-11 12:42:00,35.0,24.0,-100.00,West,259,5.0,12.0,63,0.00,,,0.04,130.000000,,2013-11-11 17:42:00,
2013-11-11 12:52:00,35.0,24.0,-100.00,West,259,5.0,12.0,63,0.00,,,0.04,130.000000,,2013-11-11 17:52:00,
2013-11-11 13:02:00,35.0,24.0,-100.00,West,259,5.0,12.0,63,0.00,,,0.04,130.000000,,2013-11-11 18:02:00,
2013-11-11 13:10:00,37.0,25.0,-100.00,SW,214,3.0,9.0,61,0.00,,,0.04,165.000000,,2013-11-11 18:10:00,
2013-11-11 13:42:00,37.0,25.0,-100.00,SW,214,3.0,9.0,61,0.00,,,0.04,165.000000,,2013-11-11 18:42:00,
2013-11-11 13:52:00,37.0,25.0,-100.00,SW,214,3.0,9.0,61,0.00,,,0.04,165.000000,,2013-11-11 18:52:00,
2013-11-11 14:02:00,37.0,25.0,-100.00,SW,214,3.0,9.0,61,0.00,,,0.04,165.000000,,2013-11-11 19:02:00,
2013-11-11 14:10:00,39.0,25.0,-100.00,WSW,247,3.0,8.0,57,0.00,,,0.04,128.000000,,2013-11-11 19:10:00,
2013-11-11 14:42:00,39.0,25.0,-100.00,WSW,247,3.0,8.0,57,0.00,,,0.04,128.000000,,2013-11-11 19:42:00,
2013-11-11 14:53:00,39.0,25.0,-100.00,WSW,247,3.0,8.0,57,0.00,,,0.04,128.000000,,2013-11-11 19:53:00,
2013-11-11 15:02:00,39.0,25.0,-100.00,WSW,247,3.0,8.0,57,0.00,,,0.04,128.000000,,2013-11-11 20:02:00,
2013-11-11 15:10:00,38.0,23.0,-100.00,SW,231,2.0,6.0,55,0.00,,,0.04,73.000000,,2013-11-11 20:10:00,
2013-11-11 15:42:00,38.0,23.0,-100.00,SW,231,2.0,6.0,55,0.00,,,0.04,73.000000,,2013-11-11 20:42:00,
2013-11-11 15:52:00,38.0,23.0,-100.00,SW,231,2.0,6.0,55,0.00,,,0.04,73.000000,,2013-11-11 20:52:00,
2013-11-11 16:02:00,38.0,23.0,-100.00,SW,231,2.0,6.0,55,0.00,,,0.04,73.000000,,2013-11-11 21:02:00,
2013-11-11 16:10:00,38.0,25.0,-100.00,SSW,209,2.0,7.0,59,0.00,,,0.04,19.000000,,2013-11-11 21:10:00,
2013-11-11 16:43:00,38.0,25.0,-100.00,SSW,209,2.0,7.0,59,0.00,,,0.04,19.000000,,2013-11-11 21:43:00,
2013-11-11 16:55:00,38.0,25.0,-100.00,SSW,209,2.0,7.0,59,0.00,,,0.04,19.000000,,2013-11-11 21:55:00,
2013-11-11 17:04:00,38.0,25.0,-100.00,SSW,209,2.0,7.0,59,0.00,,,0.04,19.000000,,2013-11-11 22:04:00,
2013-11-11 17:10:00,37.0,26.0,-100.00,East,84,2.0,6.0,63,0.00,,,0.04,1.000000,,2013-11-11 22:10:00,
2013-11-11 17:43:00,37.0,26.0,-100.00,East,84,2.0,6.0,63,0.00,,,0.04,1.000000,,2013-11-11 22:43:00,
2013-11-11 17:53:00,37.0,26.0,-100.00,East,84,2.0,6.0,63,0.00,,,0.04,1.000000,,2013-11-11 22:53:00,
2013-11-11 18:03:00,37.0,26.0,-100.00,East,84,2.0,6.0,63,0.00,,,0.04,1.000000,,2013-11-11 23:03:00,
2013-11-11 18:10:00,35.0,27.0,-100.00,South,170,0.0,2.0,73,0.00,,,0.03,0.000000,,2013-11-11 23:10:00,
2013-11-11 18:43:00,35.0,27.0,-100.00,South,170,0.0,2.0,73,0.00,,,0.03,0.000000,,2013-11-11 23:43:00,
2013-11-11 18:53:00,35.0,27.0,-100.00,South,170,0.0,2.0,73,0.00,,,0.03,0.000000,,2013-11-11 23:53:00,
2013-11-11 19:03:00,35.0,27.0,-100.00,South,170,0.0,2.0,73,0.00,,,0.03,0.000000,,2013-11-12 00:03:00,
2013-11-11 19:10:00,36.0,28.0,-100.00,NW,319,0.0,3.0,72,0.00,,,0.03,0.000000,,2013-11-12 00:10:00,
2013-11-11 19:42:00,36.0,28.0,-100.00,NW,319,0.0,3.0,72,0.00,,,0.03,0.000000,,2013-11-12 00:42:00,
2013-11-11 19:52:00,36.0,28.0,-100.00,NW,319,0.0,3.0,72,0.00,,,0.03,0.000000,,2013-11-12 00:52:00,
2013-11-11 20:01:00,36.0,28.0,-100.00,NW,319,0.0,3.0,72,0.00,,,0.03,0.000000,,2013-11-12 01:01:00,
2013-11-11 20:10:00,35.0,29.0,-100.00,East,101,1.0,3.0,77,0.00,,,0.03,0.000000,,2013-11-12 01:10:00,
2013-11-11 20:42:00,35.0,29.0,-100.00,East,101,1.0,3.0,77,0.00,,,0.03,0.000000,,2013-11-12 01:42:00,
2013-11-11 20:52:00,35.0,29.0,-100.00,East,101,1.0,3.0,77,0.00,,,0.03,0.000000,,2013-11-12 01:52:00,
2013-11-11 21:01:00,35.0,29.0,-100.00,East,101,1.0,3.0,77,0.00,,,0.03,0.000000,,2013-11-12 02:01:00,
2013-11-11 21:10:00,38.0,30.0,-100.00,SSW,207,2.0,5.0,74,0.00,,,0.03,0.000000,,2013-11-12 02:10:00,
2013-11-11 21:42:00,38.0,30.0,-100.00,SSW,207,2.0,5.0,74,0.00,,,0.03,0.000000,,2013-11-12 02:42:00,
2013-11-11 21:52:00,38.0,30.0,-100.00,SSW,207,2.0,5.0,74,0.00,,,0.03,0.000000,,2013-11-12 02:52:00,
2013-11-11 22:02:00,38.0,30.0,-100.00,SSW,207,2.0,5.0,74,0.00,,,0.03,0.000000,,2013-11-12 03:02:00,
2013-11-11 22:10:00,40.0,27.0,-100.00,West,262,2.0,7.0,60,0.00,,,0.01,0.000000,,2013-11-12 03:10:00,
2013-11-11 22:45:00,40.0,27.0,-100.00,West,262,2.0,7.0,60,0.00,,,0.01,0.000000,,2013-11-12 03:45:00,
2013-11-11 22:54:00,40.0,27.0,-100.00,West,262,2.0,7.0,60,0.00,,,0.01,0.000000,,2013-11-12 03:54:00,
2013-11-11 23:05:00,40.0,27.0,-100.00,West,262,2.0,7.0,60,0.00,,,0.01,0.000000,,2013-11-12 04:05:00,
2013-11-11 23:10:00,40.0,30.0,-100.00,SW,223,2.0,6.0,67,0.00,,,0.01,0.000000,,2013-11-12 04:10:00,
2013-11-11 23:44:00,40.0,30.0,-100.00,SW,223,2.0,6.0,67,0.00,,,0.01,0.000000,,2013-11-12 04:44:00,
2013-11-11 23:53:00,40.0,30.0,-100.00,SW,223,2.0,6.0,67,0.00,,,0.01,0.000000,,2013-11-12 04:53:00,